• In Uzbekistan
  • List of Countries
  • For 7 days
  • Water Temperature
  • Satellite Maps
  • Weather Map
  • Weather Widgets
  • user-avatar
    Login

    Hourly Weather Carynskie

    Today, 10 December, Monday

    Time Temperature Precipitation Wind Pressure Humidity
    00:00 -2°C° 0.1 mm 3 mps 687 mmHg 91%
    01:00 -2°C° 0.1 mm 3 mps 687 mmHg 91%
    02:00 -2°C° 0 mm 2 mps 686 mmHg 91%
    03:00 -2°C° 0.2 mm 2 mps 687 mmHg 91%
    04:00 -2°C° 0.2 mm 2 mps 687 mmHg 92%
    05:00 -2°C° 0.2 mm 2 mps 687 mmHg 92%
    06:00 -2°C° 0.4 mm 2 mps 687 mmHg 92%
    07:00 -2°C° 0.4 mm 2 mps 687 mmHg 92%
    08:00 -2°C° 0 mm 2 mps 687 mmHg 93%
    09:00 -2°C° 0.2 mm 2 mps 688 mmHg 90%
    10:00 -1°C° 0.2 mm 2 mps 688 mmHg 88%
    11:00 -1°C° 0.2 mm 3 mps 689 mmHg 86%
    12:00 -1°C° 0.1 mm 3 mps 689 mmHg 85%
    13:00 -1°C° 0.1 mm 3 mps 689 mmHg 84%
    14:00 0°C° 0.1 mm 3 mps 690 mmHg 83%
    15:00 -1°C° 0.1 mm 3 mps 690 mmHg 85%
    16:00 -2°C° 0.1 mm 2 mps 690 mmHg 87%
    17:00 -2°C° 0.1 mm 2 mps 690 mmHg 89%
    18:00 -3°C° 0.1 mm 2 mps 691 mmHg 89%
    19:00 -3°C° 0.1 mm 2 mps 691 mmHg 90%
    20:00 -4°C° 0.1 mm 2 mps 691 mmHg 91%
    21:00 -4°C° 0 mm 2 mps 691 mmHg 91%
    22:00 -4°C° 0 mm 2 mps 691 mmHg 91%
    23:00 -2°C° 0 mm 1 mps 691 mmHg 92%

    Tomorrow, 11 December, Tuesday

    Time Temperature Precipitation Wind Pressure Humidity
    00:00 -2°C° 0 mm 1 mps 691 mmHg 91%
    01:00 -2°C° 0 mm 1 mps 692 mmHg 91%
    02:00 -2°C° 0 mm 1 mps 692 mmHg 91%
    03:00 -2°C° 0 mm 1 mps 692 mmHg 91%
    04:00 -3°C° 0 mm 1 mps 692 mmHg 91%
    05:00 -3°C° 0 mm 1 mps 692 mmHg 92%
    06:00 -3°C° 0 mm 1 mps 692 mmHg 91%
    07:00 -3°C° 0 mm 1 mps 692 mmHg 91%
    08:00 -3°C° 0 mm 1 mps 692 mmHg 91%
    09:00 -2°C° 0 mm 1 mps 693 mmHg 87%
    10:00 -1°C° 0 mm 1 mps 693 mmHg 82%
    11:00 0°C° 0 mm 1 mps 693 mmHg 78%
    12:00 -2°C° 0 mm 2 mps 693 mmHg 77%
    13:00 -2°C° 0 mm 2 mps 693 mmHg 76%
    14:00 -2°C° 0 mm 2 mps 693 mmHg 76%
    15:00 -2°C° 0 mm 2 mps 693 mmHg 80%
    16:00 -3°C° 0 mm 2 mps 693 mmHg 84%
    17:00 -4°C° 0 mm 2 mps 693 mmHg 88%
    18:00 -4°C° 0 mm 2 mps 693 mmHg 89%
    19:00 -4°C° 0 mm 2 mps 693 mmHg 90%
    20:00 -4°C° 0 mm 2 mps 693 mmHg 91%
    21:00 -4°C° 0 mm 2 mps 693 mmHg 90%
    22:00 -4°C° 0 mm 2 mps 693 mmHg 90%
    23:00 -4°C° 0 mm 2 mps 693 mmHg 90%

    Day after tomorrow, 12 December, Wednesday

    Time Temperature Precipitation Wind Pressure Humidity
    00:00 -4°C° 0 mm 2 mps 693 mmHg 91%
    01:00 -3°C° 0 mm 1 mps 693 mmHg 92%
    02:00 -3°C° 0 mm 1 mps 694 mmHg 93%
    03:00 -3°C° 0 mm 1 mps 693 mmHg 93%
    04:00 -3°C° 0 mm 1 mps 693 mmHg 93%
    05:00 -4°C° 0 mm 0 mps 693 mmHg 93%
    06:00 -4°C° 0.1 mm 0 mps 694 mmHg 92%
    07:00 -3°C° 0.1 mm 0 mps 694 mmHg 91%
    08:00 -3°C° 0.1 mm 0 mps 694 mmHg 91%
    09:00 -3°C° 0 mm 0 mps 695 mmHg 88%
    10:00 -1°C° 0 mm 1 mps 695 mmHg 85%
    11:00 -1°C° 0 mm 1 mps 695 mmHg 83%
    12:00 0°C° 0 mm 1 mps 695 mmHg 81%
    13:00 0°C° 0 mm 1 mps 695 mmHg 80%
    14:00 0°C° 0 mm 1 mps 695 mmHg 78%
    15:00 -1°C° 0 mm 1 mps 695 mmHg 82%
    16:00 -1°C° 0 mm 1 mps 695 mmHg 85%
    17:00 -2°C° 0 mm 1 mps 695 mmHg 88%
    18:00 -2°C° 0 mm 1 mps 695 mmHg 90%
    19:00 -3°C° 0 mm 1 mps 695 mmHg 91%
    20:00 -5°C° 0 mm 2 mps 695 mmHg 93%
    21:00 -5°C° 0 mm 2 mps 695 mmHg 92%
    22:00 -5°C° 0 mm 2 mps 695 mmHg 91%
    23:00 -5°C° 0 mm 2 mps 695 mmHg 90%

    13 December, Thursday

    Time Temperature Precipitation Wind Pressure Humidity
    00:00 -5°C° 0.1 mm 2 mps 695 mmHg 90%
    01:00 -5°C° 0.1 mm 2 mps 695 mmHg 90%
    02:00 -6°C° 0.1 mm 3 mps 695 mmHg 90%
    03:00 -6°C° 0.2 mm 3 mps 695 mmHg 90%
    04:00 -6°C° 0.2 mm 3 mps 695 mmHg 90%
    05:00 -6°C° 0.2 mm 3 mps 695 mmHg 90%
    06:00 -6°C° 0.3 mm 3 mps 694 mmHg 90%
    07:00 -6°C° 0.3 mm 3 mps 694 mmHg 90%
    08:00 -6°C° 0.3 mm 3 mps 694 mmHg 90%
    09:00 -6°C° 0.3 mm 3 mps 694 mmHg 89%
    10:00 -6°C° 0.3 mm 3 mps 694 mmHg 88%
    11:00 -6°C° 0.3 mm 3 mps 694 mmHg 86%
    12:00 -5°C° 0.2 mm 3 mps 694 mmHg 86%
    13:00 -5°C° 0.2 mm 3 mps 694 mmHg 85%
    14:00 -5°C° 0.2 mm 3 mps 694 mmHg 84%
    15:00 -5°C° 0.2 mm 3 mps 694 mmHg 86%
    16:00 -5°C° 0.2 mm 2 mps 694 mmHg 88%
    17:00 -5°C° 0.2 mm 2 mps 695 mmHg 91%
    18:00 -5°C° 0.2 mm 2 mps 695 mmHg 91%
    19:00 -5°C° 0.2 mm 2 mps 695 mmHg 92%
    20:00 -5°C° 0.2 mm 2 mps 695 mmHg 92%
    21:00 -5°C° 0.1 mm 2 mps 696 mmHg 92%
    22:00 -5°C° 0.1 mm 2 mps 696 mmHg 93%
    23:00 -5°C° 0.1 mm 2 mps 696 mmHg 93%

    14 December, Friday

    Time Temperature Precipitation Wind Pressure Humidity
    00:00 -3°C° 0.1 mm 1 mps 697 mmHg 93%
    01:00 -3°C° 0.1 mm 1 mps 697 mmHg 94%
    02:00 -3°C° 0.1 mm 1 mps 697 mmHg 94%
    03:00 -4°C° 0 mm 1 mps 697 mmHg 94%
    04:00 -4°C° 0 mm 1 mps 698 mmHg 94%
    05:00 -4°C° 0 mm 1 mps 698 mmHg 95%
    06:00 -4°C° 0.1 mm 1 mps 698 mmHg 94%
    07:00 -4°C° 0.1 mm 1 mps 699 mmHg 94%
    08:00 -4°C° 0.1 mm 1 mps 699 mmHg 94%
    09:00 -3°C° 0 mm 1 mps 700 mmHg 92%
    10:00 -3°C° 0 mm 1 mps 700 mmHg 89%
    11:00 -2°C° 0 mm 1 mps 701 mmHg 87%
    12:00 -2°C° 0 mm 1 mps 701 mmHg 85%
    13:00 -1°C° 0 mm 1 mps 701 mmHg 84%
    14:00 -1°C° 0 mm 1 mps 702 mmHg 82%
    15:00 -2°C° 0 mm 1 mps 702 mmHg 85%
    16:00 -3°C° 0 mm 0 mps 702 mmHg 88%
    17:00 -4°C° 0 mm 0 mps 702 mmHg 91%
    18:00 -4°C° 0 mm 0 mps 703 mmHg 91%
    19:00 -4°C° 0 mm 0 mps 703 mmHg 92%
    20:00 -5°C° 0 mm 0 mps 703 mmHg 92%
    21:00 -5°C° 0 mm 0 mps 704 mmHg 92%
    22:00 -5°C° 0 mm 0 mps 704 mmHg 92%
    23:00 -6°C° 0 mm 0 mps 704 mmHg 93%

    15 December, Saturday

    Time Temperature Precipitation Wind Pressure Humidity
    00:00 -6°C° 0 mm 0 mps 704 mmHg 92%
    01:00 -6°C° 0 mm 0 mps 704 mmHg 92%
    02:00 -6°C° 0 mm 0 mps 704 mmHg 92%
    03:00 -6°C° 0 mm 0 mps 704 mmHg 92%
    04:00 -7°C° 0 mm 0 mps 705 mmHg 91%
    05:00 -7°C° 0 mm 0 mps 705 mmHg 91%
    06:00 -7°C° 0 mm 0 mps 705 mmHg 91%
    07:00 -7°C° 0 mm 1 mps 705 mmHg 91%
    08:00 -7°C° 0 mm 1 mps 706 mmHg 91%
    09:00 -6°C° 0 mm 1 mps 706 mmHg 89%
    10:00 -4°C° 0 mm 1 mps 706 mmHg 86%
    11:00 -3°C° 0 mm 1 mps 707 mmHg 83%
    12:00 -2°C° 0 mm 1 mps 707 mmHg 82%
    13:00 -2°C° 0 mm 1 mps 707 mmHg 81%
    14:00 -1°C° 0 mm 1 mps 707 mmHg 79%
    15:00 -2°C° 0 mm 1 mps 707 mmHg 83%
    16:00 -3°C° 0 mm 1 mps 707 mmHg 87%
    17:00 -4°C° 0 mm 1 mps 707 mmHg 91%
    18:00 -4°C° 0 mm 1 mps 707 mmHg 91%
    19:00 -4°C° 0 mm 1 mps 707 mmHg 92%
    20:00 -6°C° 0 mm 1 mps 707 mmHg 93%
    21:00 -6°C° 0 mm 1 mps 707 mmHg 93%
    22:00 -6°C° 0 mm 1 mps 707 mmHg 93%
    23:00 -6°C° 0 mm 1 mps 707 mmHg 93%
    Show more